Content
SEND FEEDBACK

Daily
Averages
Monthly
Summary
United States of America

POTTS JUNCTION, GUAM


Home > North America > United States > Guam
Elevation: 360 feet     Latitude: 13 33N     Longitude: 144 50E

WEATHER
 
SELECT A DAY
Number of Records: 208,860;   Date Range: 1/1/95 - 7/20/14
 
SHARE

PRINT THIS DATA

[ ← Previous Day ]
WEATHER ALMANAC - AUGUST 21, 2013
[ Next Day → ]
[ °C ]   °F
Weather ElementAverageHighLow
Temperature81.5 °F87.8 °F (3:04 pm)75.2 °F (9:50 am)
Dewpoint76.2 °F78.1 °F (5:54 am)73.4 °F (9:50 am)
Humidity84.5 %97 % (5:54 am)66 % (3:04 pm)
Barometer29.79 in29.85 in (9:34 am)29.72 in (3:54 pm)
Wind Speed7.1 mph18.4 mph (9:34 am)
Wind Gust25.3 mph (9:34 am)
Weather ElementAverage
Visibility8.8 mi
Wind DirectionENE (53.4 °)

Weather ElementTotal
Precipitation0.92 in
Cooling Degree Days16.5 (Base 65)
Growing Degree Days31.5 (Base 50)
Averaged from 35 records on August 21, 2013
WEATHER CONDITIONS BREAKOUT
WIND DIRECTION BREAKOUT
WEATHER BY HOUR - AUGUST 21, 2013
[ °C ]   °F
Local TimeTemperatureDewpointHumidityBarometerVisibilityWind DirectionWind SpeedGust SpeedPrecipitationEventsConditions
1:54 AM81.0 °F77.0 °F88 %29.79 in10.0 miNE (50°)5.8 mphPartly Cloudy
2:54 AM82.0 °F77.0 °F85 %29.78 in10.0 miSE (130°)3.5 mphMostly Cloudy
3:54 AM81.0 °F77.0 °F88 %29.78 in10.0 miENE (70°)6.9 mph0.06 inScattered Clouds
4:54 AM80.1 °F77.0 °F90 %29.78 in10.0 miCalm0.00 inRainLight Rain
5:12 AM80.6 °F77.0 °F89 %29.80 in10.0 miCalm0.00 inMostly Cloudy
5:54 AM79.0 °F78.1 °F97 %29.79 in10.0 miCalm0.00 inMostly Cloudy
6:54 AM80.1 °F77.0 °F90 %29.79 in10.0 miNNE (30°)4.6 mphMostly Cloudy
7:54 AM81.0 °F77.0 °F88 %29.81 in10.0 miNE (50°)6.9 mphPartly Cloudy
8:54 AM82.9 °F78.1 °F85 %29.83 in10.0 miCalmScattered Clouds
9:34 AM78.8 °F75.2 °F89 %29.85 in1.8 miENE (60°)18.4 mph25.3 mph0.03 inRainHeavy Rain
9:43 AM77.0 °F75.2 °F94 %29.85 in2.0 miNE (40°)15.0 mph0.13 inRainLight Rain
9:50 AM75.2 °F73.4 °F94 %29.85 in6.0 miNE (40°)9.2 mph0.14 inRain-ThunderstormLight Thunderstorms and Rain
9:51 AM75.9 °F73.9 °F94 %29.83 in6.0 miNE (40°)9.2 mph0.14 inRain-ThunderstormLight Thunderstorms and Rain
10:38 AM78.8 °F75.2 °F89 %29.84 in10.0 miNNE (30°)8.1 mph0.00 inScattered Clouds
10:54 AM80.1 °F75.9 °F87 %29.82 in10.0 miNE (40°)5.8 mph0.00 inScattered Clouds
11:54 AM86.0 °F77.0 °F74 %29.79 in10.0 miENE (70°)10.4 mphPartly Cloudy
12:54 PM84.0 °F75.9 °F76 %29.78 in10.0 miNE (40°)8.1 mphClear
1:54 PM84.9 °F77.0 °F77 %29.77 in10.0 miNNE (30°)9.2 mphScattered Clouds
2:06 PM84.2 °F77.0 °F79 %29.79 in10.0 miNNE (20°)10.4 mphMostly Cloudy
2:54 PM87.1 °F75.0 °F67 %29.74 in10.0 miCalmMostly Cloudy
3:04 PM87.8 °F75.2 °F66 %29.75 in10.0 miEast (100°)3.5 mphScattered Clouds
3:30 PM86.0 °F75.2 °F70 %29.75 in10.0 miNE (40°)9.2 mphMostly Cloudy
3:39 PM86.0 °F75.2 °F70 %29.75 in10.0 miNE (50°)8.1 mphScattered Clouds
3:54 PM86.0 °F75.0 °F70 %29.72 in10.0 miENE (70°)10.4 mphScattered Clouds
4:54 PM84.0 °F75.0 °F74 %29.73 in10.0 miENE (70°)8.1 mphClear
5:54 PM84.0 °F77.0 °F79 %29.75 in10.0 miENE (60°)9.2 mphPartly Cloudy
6:54 PM82.0 °F75.9 °F82 %29.77 in10.0 miENE (70°)6.9 mphScattered Clouds
7:54 PM81.0 °F77.0 °F88 %29.78 in10.0 miNE (50°)3.5 mphClear
8:54 PM80.1 °F77.0 °F90 %29.79 in10.0 miNE (50°)4.6 mphScattered Clouds
9:54 PM79.0 °F77.0 °F94 %29.80 in10.0 miNE (50°)6.9 mph0.02 inClear
10:36 PM78.8 °F77.0 °F94 %29.83 in2.5 miESE (120°)10.4 mph0.02 inRainHeavy Rain
10:39 PM78.8 °F75.2 °F89 %29.83 in3.0 miSE (130°)6.9 mph16.1 mph0.10 inRainHeavy Rain
10:49 PM80.6 °F77.0 °F89 %29.83 in7.0 miEast (90°)10.4 mph0.13 inRainLight Rain
10:54 PM80.1 °F77.0 °F90 %29.81 in9.0 miEast (90°)11.5 mph17.3 mph0.14 inRainLight Rain
11:54 PM78.1 °F75.9 °F93 %29.80 in10.0 miEast (90°)6.9 mph0.01 inClear
Hourly data recorded from PGUM, located miles away from Potts Junction, Guam







STORIES FROM OUR PARTNERS